Theta_e
293 293 293 293 293 293 292 291 291 291 291 290 290 289 289 289 290 289 288 289 288 288 288 287 287 287 286 286 286 285 285 285 285 285 285 284 284 285 283 284 285 284
292 292 292 292 293 292 292 292 291 290 290 290 290 290 290 290 289 289 288 288 288 287 287 287 286 286 286 285 285 284 284 284 284 284 283 284 284 284 284 284 284 284
292 291 291 291 292 291 291 291 290 290 290 290 290 290 290 289 289 289 288 288 287 287 287 287 286 286 285 285 285 284 284 284 283 284 283 283 283 283 284 284 283 283
291 291 291 291 291 291 291 290 289 289 289 289 289 289 288 288 288 287 287 287 287 287 287 286 285 285 285 284 284 283 284 283 284 283 283 283 283 283 283 283 283 282
290 290 291 291 291 291 290 290 289 289 288 289 288 288 287 287 287 287 287 286 286 286 286 286 285 284 284 283 283 283 283 283 283 282 282 282 282 282 282 282 281 281
290 290 290 290 290 290 289 289 289 288 288 287 287 287 287 287 286 286 286 286 286 286 285 285 284 284 283 283 283 282 282 282 282 281 281 281 281 282 281 281 281 280
289 289 289 289 289 289 289 289 288 288 288 288 287 287 286 286 286 286 286 286 285 285 285 284 284 283 283 283 282 282 282 282 281 280 280 281 281 280 281 280 280 280
288 288 288 288 288 288 288 288 288 288 288 287 287 287 286 286 286 286 286 286 285 285 285 284 284 283 283 282 281 281 281 281 281 280 280 280 280 280 280 280 280 280
287 287 287 287 287 287 288 288 288 288 287 286 286 286 286 286 286 285 285 285 285 285 285 284 284 283 283 282 282 281 281 281 281 280 280 280 279 279 279 279 279 279
286 287 286 286 286 287 287 288 288 288 287 286 286 286 285 285 286 286 285 285 284 284 284 284 284 283 283 282 282 282 282 281 281 281 280 280 280 279 279 279 279 278
286 286 286 286 286 287 287 287 287 287 287 286 286 285 285 285 285 285 285 284 284 284 284 284 284 284 283 283 282 282 282 282 281 281 280 280 280 280 280 279 279 279
286 286 286 286 286 286 286 287 287 287 287 286 286 286 285 285 285 284 285 284 284 284 284 284 284 284 283 283 283 282 282 282 282 281 281 280 281 281 280 280 279 279
286 286 286 286 286 286 286 286 286 286 286 286 286 286 285 285 284 284 284 285 284 284 284 284 284 284 283 283 283 282 282 282 281 281 281 281 281 281 280 280 280 280
286 286 286 286 286 286 285 285 286 286 286 286 286 285 285 285 284 284 284 284 284 284 284 284 284 284 283 283 283 282 282 281 281 281 280 280 280 280 280 280 280 280
285 286 286 285 285 285 285 285 285 285 285 285 285 285 285 285 285 284 284 284 284 284 284 284 284 283 283 283 282 282 282 281 281 281 280 280 280 280 280 280 280 280
285 285 285 285 285 285 285 285 284 285 285 285 285 285 285 285 284 284 284 284 283 283 283 283 283 284 284 285 285 283 282 281 281 281 281 280 280 279 279 279 279 279
284 284 285 284 285 284 284 284 284 284 284 284 284 284 284 284 284 283 283 283 283 283 283 283 283 283 285 286 286 286 283 282 281 281 281 280 280 279 278 278 278 278
283 284 283 284 284 284 284 284 283 283 283 283 282 282 283 283 283 283 283 283 283 283 283 283 283 284 286 287 287 287 285 282 282 281 280 280 280 279 279 278 277 277
282 282 282 283 283 283 283 283 283 282 282 282 282 282 282 281 282 282 282 283 282 282 282 283 283 285 286 287 287 287 287 284 282 281 280 280 279 279 278 277 277 276
282 282 281 282 282 282 282 282 282 282 282 282 282 282 281 281 281 281 282 282 282 282 282 282 282 284 286 287 287 287 287 286 282 281 280 280 279 279 278 277 277 276
282 281 281 281 281 281 280 281 281 281 282 282 282 281 281 281 281 281 281 281 281 282 281 282 282 284 286 287 287 287 288 287 282 281 280 279 279 279 278 278 277 277
282 281 281 281 280 280 279 280 280 281 281 281 281 281 281 281 281 281 281 281 281 281 280 280 281 284 285 286 287 287 288 286 283 280 279 279 278 278 278 278 277 276
281 281 280 280 281 280 280 280 280 280 280 281 280 280 280 280 279 280 281 280 280 280 280 280 280 282 284 285 286 287 287 285 283 280 279 278 278 278 277 277 277 277
281 281 281 280 280 280 280 280 280 280 279 279 278 278 278 279 279 279 279 279 279 279 279 279 280 281 283 285 286 287 286 284 282 280 278 277 277 277 277 277 277 278
280 280 280 280 280 280 280 280 280 279 279 279 278 278 278 278 277 277 278 278 278 278 280 279 279 280 282 284 285 286 286 284 282 279 277 277 276 276 276 276 276 277
279 279 279 279 279 280 280 280 280 279 279 278 278 277 277 277 276 276 276 277 277 277 277 278 278 278 279 283 284 285 286 284 281 278 277 276 276 275 274 275 275 276
Wind_Speed
9 8 9 8 8 8 8 8 7 7 7 6 8 7 8 6 7 11 11 9 10 10 11 11 11 11 11 9 9 9 9 10 9 8 10 8 9 11 10 12 10 8
10 9 7 7 6 6 7 7 9 8 8 8 7 6 7 8 10 10 11 11 11 11 11 10 9 10 9 9 9 10 9 9 11 7 10 13 10 11 11 12 11 7
8 8 9 10 10 10 9 7 7 8 8 8 8 7 6 6 7 7 8 9 9 9 10 10 10 10 10 9 9 10 10 10 11 10 9 12 9 11 10 10 8 11
9 9 9 10 9 9 7 7 7 8 8 8 10 9 8 7 8 8 9 11 9 9 9 8 9 8 8 8 8 9 9 9 8 8 10 8 10 9 9 8 8 7
9 9 9 9 8 8 7 9 9 9 10 11 7 9 9 9 10 9 10 10 10 9 8 9 8 9 9 9 9 9 9 9 8 9 9 10 8 9 8 8 10 10
8 8 8 9 9 8 9 10 10 10 10 10 12 9 10 9 10 11 11 11 10 11 10 9 9 9 9 9 9 10 9 9 9 10 11 11 10 8 7 9 10 11
9 7 9 8 8 9 9 9 8 9 9 10 7 10 9 11 12 12 12 13 13 14 14 11 11 11 10 10 10 11 9 10 8 11 12 10 9 10 9 10 10 11
9 7 7 7 8 8 10 9 9 9 9 7 10 8 10 11 11 10 10 11 12 13 11 11 12 12 10 11 11 11 11 11 10 11 12 11 10 11 12 9 10 11
8 8 7 8 9 8 10 10 9 8 7 9 9 9 9 10 11 12 12 12 11 11 11 12 13 11 10 10 10 12 13 13 14 11 12 12 13 13 12 10 11 12
8 8 7 8 9 8 10 9 9 8 7 9 9 9 11 10 12 13 11 11 12 12 12 12 11 11 11 11 12 12 13 13 13 15 16 17 15 12 12 13 14 12
10 8 8 9 9 8 9 9 9 8 7 10 9 10 11 9 9 10 10 11 13 15 14 12 12 11 12 12 12 11 12 12 13 13 14 16 17 17 16 13 13 15
12 10 9 10 10 9 9 9 8 8 9 8 9 11 10 10 10 9 12 12 14 14 14 13 11 12 13 12 11 11 11 11 10 11 10 11 13 14 14 12 12 14
11 11 11 10 9 9 8 7 8 8 9 9 9 11 11 10 11 12 12 13 13 13 13 13 13 13 12 12 12 12 12 12 11 11 11 11 11 13 14 12 10 13
11 10 10 10 10 10 9 8 7 7 8 9 8 10 11 11 12 12 12 11 12 13 13 13 14 13 12 12 11 11 12 13 15 14 11 11 11 12 11 10 11 10
10 9 9 9 9 9 9 9 9 8 8 8 8 9 9 11 11 11 12 12 11 12 11 11 11 13 12 11 11 12 11 13 16 15 15 11 10 10 9 8 8 9
12 11 11 11 11 11 10 10 9 9 8 7 8 8 9 9 9 10 11 12 12 12 11 11 12 11 13 19 15 13 15 14 13 14 15 13 11 10 10 9 10 7
13 14 13 12 10 10 9 10 11 9 8 7 7 7 8 9 9 10 10 10 11 12 13 12 11 11 16 19 22 20 15 14 14 14 14 15 12 11 11 11 9 9
11 12 13 13 12 11 10 9 8 8 8 7 7 7 7 7 8 9 9 10 9 10 11 12 11 12 17 20 22 23 19 14 12 12 12 13 13 11 10 10 10 9
9 9 9 11 12 12 11 10 9 9 8 8 8 7 5 5 9 9 9 9 10 11 12 11 11 12 18 20 22 23 24 18 12 12 12 13 14 14 11 10 10 9
10 9 10 10 10 11 11 11 10 10 8 7 6 5 5 6 6 8 9 9 10 11 11 11 11 11 17 19 21 22 23 20 13 13 13 14 14 13 13 12 12 15
9 9 10 10 10 10 10 11 11 11 10 8 6 7 6 7 6 7 7 7 9 8 10 10 9 10 15 19 20 22 23 19 13 11 11 9 8 10 11 11 12 13
9 9 10 10 9 9 10 11 11 10 11 10 8 7 5 5 6 5 7 8 7 7 9 10 8 10 15 18 20 21 23 14 12 12 11 11 8 9 8 8 8 8
10 10 9 9 9 9 10 10 10 12 11 8 8 7 6 6 7 7 6 6 7 7 8 9 7 9 15 18 20 22 18 11 11 10 10 11 9 8 8 8 9 9
10 10 10 10 10 11 10 9 8 7 7 7 8 10 9 8 6 7 7 6 7 8 8 9 8 8 14 17 19 21 17 12 10 10 10 10 7 7 6 6 8 16
9 10 10 10 10 10 10 10 9 8 7 5 6 6 8 8 7 7 8 6 6 7 7 9 9 7 13 16 19 21 17 11 9 9 10 9 5 5 5 5 7 11
10 10 11 11 11 11 10 9 8 8 8 7 6 5 6 6 6 6 9 9 6 6 6 7 8 7 8 17 19 22 23 13 9 9 11 10 8 7 8 7 6 6
Wind_Direction
223 216 217 217 219 214 212 208 206 214 211 209 216 214 214 208 186 196 200 197 200 199 199 197 196 195 196 186 185 183 189 192 190 187 192 186 202 190 194 195 196 195
223 220 221 223 224 212 210 190 199 202 209 212 219 214 218 205 209 199 198 200 200 203 199 198 197 196 189 186 183 187 186 189 195 175 188 189 195 188 197 195 195 188
227 221 215 214 218 218 214 201 200 205 209 209 207 209 208 211 209 207 205 205 203 200 198 198 195 195 194 191 184 193 192 188 196 182 187 193 186 192 194 183 190 188
227 223 225 224 218 218 205 202 200 199 208 210 208 197 187 180 181 191 202 206 207 204 203 196 198 190 194 191 187 200 199 200 195 172 191 190 197 192 189 179 184 184
232 229 224 225 224 214 199 204 207 207 208 209 193 194 192 184 183 184 187 195 201 204 199 199 191 195 188 192 192 198 197 200 185 185 192 196 193 188 188 177 184 187
242 234 232 227 220 213 214 213 210 208 209 204 205 185 194 185 192 195 191 190 192 196 196 192 194 193 189 192 191 203 194 196 190 182 193 195 189 192 181 187 181 189
249 239 239 232 227 221 225 222 216 212 213 214 193 203 181 189 193 195 194 197 196 199 198 191 190 189 188 189 195 199 200 198 183 189 191 195 179 187 189 185 190 187
261 253 242 235 231 228 229 227 224 220 213 198 208 204 190 197 195 191 193 195 200 204 204 202 202 201 192 190 192 193 199 203 201 189 196 192 183 188 188 188 184 186
281 267 252 244 238 235 236 234 234 231 209 210 209 198 194 199 195 191 190 192 197 197 198 201 201 198 195 196 199 196 199 203 204 194 194 189 190 193 184 179 184 192
293 282 273 258 248 244 243 239 236 234 212 216 212 203 202 205 200 199 194 194 199 200 200 200 197 199 197 200 201 197 202 205 205 205 205 205 200 186 180 184 190 181
316 302 288 275 261 257 252 248 241 235 221 219 212 215 213 203 206 199 197 196 202 203 202 202 201 196 199 202 202 202 204 205 208 210 212 213 210 202 193 185 184 192
341 327 307 289 281 274 264 258 252 241 233 227 217 223 216 212 204 201 206 205 205 203 202 201 196 197 201 202 200 199 201 204 205 204 207 213 219 218 206 194 193 194
354 345 330 316 302 288 280 268 255 247 240 236 223 225 221 215 212 211 213 212 211 205 204 200 201 200 199 198 197 197 199 199 200 201 203 203 209 216 218 213 201 197
355 346 343 334 323 315 305 291 274 258 244 242 232 228 225 223 216 215 216 214 214 210 209 205 206 205 202 199 196 193 197 204 205 206 203 205 205 207 208 212 211 203
350 348 347 346 341 336 326 311 297 278 265 252 240 237 231 229 225 219 218 218 218 215 210 205 208 209 205 198 194 194 195 202 205 206 207 204 202 202 200 201 206 210
350 352 353 350 352 350 341 329 314 300 284 267 252 242 240 235 231 226 222 220 217 217 213 211 216 214 210 203 196 196 199 204 204 207 206 204 200 198 197 195 198 200
352 350 348 352 351 345 342 338 328 317 302 284 270 254 246 239 230 231 227 223 220 216 214 217 218 217 208 201 202 197 196 202 203 206 204 204 200 193 194 187 184 185
351 346 346 344 346 346 342 337 329 322 314 303 294 281 263 252 245 240 236 229 228 226 224 223 224 217 206 205 202 201 197 200 204 206 203 206 204 198 190 181 177 173
346 349 343 342 340 338 337 336 336 330 326 321 306 291 292 269 255 249 244 238 231 231 230 226 229 209 208 205 204 203 200 196 208 206 204 207 205 204 196 181 174 166
345 344 343 339 337 335 335 335 336 334 324 312 303 297 279 271 263 254 251 244 237 236 238 236 232 221 211 208 206 204 203 198 209 205 209 208 205 200 200 196 189 191
342 341 337 336 336 335 335 333 333 329 330 328 326 315 305 288 274 267 255 251 251 243 243 241 237 222 215 211 208 206 206 201 208 209 211 210 202 199 197 192 191 196
336 333 331 329 330 332 332 331 328 326 323 325 323 314 298 288 281 270 266 259 252 251 250 249 242 223 220 216 212 209 206 205 208 208 210 208 204 204 201 195 188 185
329 327 324 322 324 325 324 323 323 321 320 321 317 310 306 298 292 283 280 272 262 253 249 252 248 227 222 218 214 210 206 209 207 208 212 210 207 195 193 194 194 186
325 320 320 320 321 321 318 314 310 303 301 315 314 314 313 306 303 296 284 275 267 260 248 252 251 232 227 222 217 214 208 209 206 206 209 211 209 196 191 192 192 194
317 316 313 312 310 309 310 309 307 301 295 291 281 283 289 298 299 291 284 271 260 258 261 255 254 240 228 227 222 216 213 211 205 202 206 208 190 192 191 182 193 195
312 311 309 307 307 302 303 299 297 298 294 292 281 262 266 266 270 270 274 276 273 270 263 257 259 249 229 229 228 223 217 210 197 197 206 200 194 195 193 199 185 185